Regional Weather Roundup
Issued by NWS

Home | Current Version | Previous Version | Text Only | Print | Product List | Glossary On
Versions: 1 2 3 4 5 6 7 8 9 10 11 12 13 14 15 16 17 18 19 20 21 22 23 24 25 26 27
000
ASUS45 KREV 300910
RWRNV
NEVADA REGIONAL WEATHER ROUNDUP
NATIONAL WEATHER SERVICE RENO NV
200 AM PDT THU MAR 30 2017

NOTE: "FAIR" INDICATES FEW OR NO CLOUDS BELOW 12,000 FEET WITH NO
SIGNIFICANT WEATHER AND/OR OBSTRUCTIONS TO VISIBILITY.

NVZ001-003-004-301000-
WESTERN NEVADA

CITY           SKY/WX    TMP DP  RH WIND       PRES   REMARKS
RENO           MOCLDY    54  38  54 W12       29.99F
CARSON CITY    FAIR      54  34  47 SW8G22    30.01F
MINDEN         FAIR      52  36  54 S16G25    30.02F
FALLON         CLOUDY    52  36  54 CALM      29.96F
LOVELOCK       CLOUDY    53  41  63 NW12      29.96F
HAWTHORNE      PTCLDY    54  32  43 CALM      29.97F
$$

NVZ002-CAZ072-073-301000-
NORTHERN AND CENTRAL SIERRA

CITY           SKY/WX    TMP DP  RH WIND       PRES   REMARKS
S. LAKE TAHOE  LGT RAIN  44  37  76 S16G29    30.06F
TRUCKEE        LGT RAIN  43  37  81 SW6       30.06F
SQUAW VLY 8000   N/A     34  34 100 SW10        N/A
MAMMOTH LAKES  FAIR      50  25  36 W10G38    30.12F
BRIDGEPORT       N/A     47  21  35 W18G26    30.07F
$$

NVZ030-031-036-301000-
NORTHERN NEVADA

CITY           SKY/WX    TMP DP  RH WIND       PRES   REMARKS
ELKO           MOCLDY    46  38  73 W5        29.93F
WINNEMUCCA     CLOUDY    49  44  83 VRB5      29.93F
WENDOVER       MOCLDY    49  39  68 E5        29.91F
$$

NVZ035-037-301000-
CENTRAL NEVADA

CITY           SKY/WX    TMP DP  RH WIND       PRES   REMARKS
ELY            CLEAR     36  31  82 SW5       30.02F
EUREKA           N/A     40  32  73 SW3       29.99F
$$

NVZ013-014-301000-
SOUTH CENTRAL NEVADA

CITY           SKY/WX    TMP DP  RH WIND       PRES   REMARKS
TONOPAH        CLEAR     44  28  53 CALM      30.03F
$$

NVZ017-020-022-301000-
SOUTHERN NEVADA

CITY           SKY/WX    TMP DP  RH WIND       PRES   REMARKS
LAS VEGAS      PTCLDY    61  26  26 SW5       29.92F
N. LAS VEGAS   PTCLDY    58  31  35 CALM      29.92F
NELLIS AFB     CLEAR     55  28  35 NE5       29.92F
HENDERSON      CLEAR     59  26  28 S13       29.95F
MERCURY        PTCLDY    52  27  38 NE6       29.95F
$$




USA.gov is the U.S. government's official web portal to all federal, state and local government web resources and services.